Chatham, MA

1:12 PM EST on December 05, 2019 (GMT -0500)
Chatham Municipal

Weather History for KCQX - October, 2019

Change the Weather History Date:

Monday, October 7, 2019

  Actual Average Record
Temperature  
Mean Temperature 68 °F -  
Max Temperature 73 °F 61 °F 75 °F (2005)
Min Temperature 64 °F 47 °F 35 °F (1998)
Cooling Degree Days 3    
Growing Degree Days 18 (Base 50)    
Moisture  
Dew Point 62 °F    
Average Humidity 82    
Maximum Humidity 93    
Minimum Humidity 71    
Precipitation  
Precipitation 0.00 in - - ()
Sea Level Pressure  
Sea Level Pressure 30.21 in    
Wind  
Wind Speed 10 mph (SSW)    
Max Wind Speed 15 mph    
Max Gust Speed 26 mph    
Visibility 10 miles    
Events Rain    
Averages and records for this station are not official NWS values.
T = Trace of Precipitation, MM = Missing Value Source: NWS Daily Summary

Daily Weather History Graph

Daily Weather History Graph

Search for Another Location

Airport or City:

Astronomy

Oct. 07, 2019 Rise Set
Actual Time 6:42 AM EDT 6:12 PM EDT
Civil Twilight 6:15 AM EDT 6:39 PM EDT
Nautical Twilight 5:43 AM EDT 7:11 PM EDT
Astronomical Twilight 5:10 AM EDT 7:44 PM EDT
Moon 3:37 PM EDT (10/7) 12:26 AM EDT (10/7)
Length of Visible Light 12h 24m
Length of Day
11h 29m
Waxing Gibbous, 69% of the Moon is Illuminated
Oct 7
Waxing Gibbous
Oct 13
Full
Oct 21
Last Quarter
Oct 27
New
Nov 4
First Quarter

Hourly Weather History & Observations

Time (EDT) Temp. Dew Point Humidity Pressure Visibility Wind Dir Wind Speed Gust Speed Precip Events Conditions
12:52 AM 64.9 °F 60.1 °F 84% 30.29 in 10.0 mi SSW 11.5 mph 23.0 mph N/A   Overcast
1:52 AM 64.9 °F 60.1 °F 84% 30.29 in 10.0 mi SSW 9.2 mph 18.4 mph N/A   Overcast
2:52 AM 64.9 °F 60.1 °F 84% 30.27 in 10.0 mi SSW 10.4 mph 18.4 mph N/A   Overcast
3:52 AM 64.9 °F 61.0 °F 87% 30.27 in 10.0 mi SSW 10.4 mph 17.3 mph N/A   Overcast
4:52 AM 64.9 °F 61.0 °F 87% 30.26 in 10.0 mi SSW 9.2 mph 16.1 mph N/A   Overcast
5:52 AM 64.9 °F 60.1 °F 84% 30.25 in 10.0 mi Variable 6.9 mph 16.1 mph N/A   Overcast
6:52 AM 64.9 °F 60.1 °F 84% 30.25 in 10.0 mi SSW 8.1 mph 21.9 mph N/A   Partly Cloudy
7:52 AM 66.0 °F 61.0 °F 84% 30.25 in 10.0 mi SSW 11.5 mph 19.6 mph N/A   Clear
8:52 AM 69.1 °F 62.1 °F 78% 30.25 in 10.0 mi SSW 9.2 mph 16.1 mph N/A   Partly Cloudy
9:52 AM 69.1 °F 62.1 °F 78% 30.26 in 10.0 mi SSW 9.2 mph 18.4 mph N/A   Partly Cloudy
10:52 AM 72.0 °F 63.0 °F 73% 30.24 in 10.0 mi SSW 11.5 mph 21.9 mph N/A   Mostly Cloudy
11:52 AM 71.1 °F 63.0 °F 75% 30.21 in 10.0 mi SSW 11.5 mph 24.2 mph N/A   Clear
12:52 PM 70.0 °F 62.1 °F 76% 30.19 in 10.0 mi SSW 11.5 mph 20.7 mph N/A   Clear
1:52 PM 71.1 °F 62.1 °F 73% 30.17 in 10.0 mi SSW 11.5 mph 26.5 mph N/A   Clear
2:52 PM 72.0 °F 62.1 °F 71% 30.16 in 10.0 mi SSW 10.4 mph 21.9 mph N/A   Clear
3:52 PM 70.0 °F 62.1 °F 76% 30.15 in 10.0 mi SSW 15.0 mph 24.2 mph N/A   Clear
4:52 PM 69.1 °F 63.0 °F 81% 30.15 in 10.0 mi SSW 10.4 mph 25.3 mph N/A   Mostly Cloudy
5:52 PM 68.0 °F 62.1 °F 81% 30.15 in 10.0 mi SSW 12.7 mph 26.5 mph N/A   Overcast
6:52 PM 66.9 °F 63.0 °F 87% 30.15 in 10.0 mi SSW 10.4 mph 19.6 mph N/A   Partly Cloudy
7:52 PM 68.0 °F 63.0 °F 84% 30.15 in 10.0 mi SSW 9.2 mph 23.0 mph N/A   Mostly Cloudy
8:52 PM 66.9 °F 63.0 °F 87% 30.16 in 10.0 mi SSW 9.2 mph - N/A   Overcast
9:52 PM 66.0 °F 64.0 °F 93% 30.16 in 10.0 mi SSW 9.2 mph - N/A   Mostly Cloudy
10:52 PM 66.0 °F 64.0 °F 93% 30.15 in 10.0 mi SSW 11.5 mph 19.6 mph N/A   Overcast
11:52 PM 66.0 °F 63.0 °F 90% 30.16 in 10.0 mi SW 5.8 mph - 0.00 in Rain Light Rain